Clinton-Sherman, OK

9:54 AM CDT on May 27, 2018 (GMT -0500)
Clinton-Sherman

Weather History for KCSM - December, 2012

Change the Weather History Date:

Saturday, December 29, 2012

  Actual Average Record
Temperature  
Mean Temperature 31 °F -  
Max Temperature 44 °F 47 °F 68 °F (2005)
Min Temperature 18 °F 27 °F 18 °F (2012)
Degree Days  
Heating Degree Days 34    
Moisture  
Dew Point 19 °F    
Average Humidity 66    
Maximum Humidity 78    
Minimum Humidity 40    
Precipitation  
Precipitation 0.00 in - - ()
Sea Level Pressure  
Sea Level Pressure 30.37 in    
Wind  
Wind Speed 10 mph (WNW)    
Max Wind Speed 16 mph    
Max Gust Speed -    
Visibility 10 miles    
Events      
Averages and records for this station are not official NWS values.
T = Trace of Precipitation, MM = Missing Value Source: NWS Daily Summary

Daily Weather History Graph

Daily Weather History Graph

Search for Another Location

Airport or City:

Astronomy

Dec. 29, 2012 Rise Set
Actual Time 7:45 AM CST 5:33 PM CST
Civil Twilight 7:16 AM CST 6:01 PM CST
Nautical Twilight 6:45 AM CST 6:33 PM CST
Astronomical Twilight 6:14 AM CST 7:04 PM CST
Moon 7:04 PM CST (12/29) 8:22 AM CST (12/29)
Length of Visible Light 10h 44m
Length of Day
9h 48m
Full, 98% of the Moon is Illuminated
Dec 29
Full
Jan 4
Last Quarter
Jan 11
New
Jan 18
First Quarter
Jan 26
Full

Hourly Weather History & Observations

Time (CST) Temp. Windchill Dew Point Humidity Pressure Visibility Wind Dir Wind Speed Gust Speed Precip Events Conditions
12:53 AM 18.0 °F 9.8 °F 12.0 °F 78% 30.28 in 10.0 mi NW 5.8 mph - N/A   Clear
1:53 AM 21.0 °F 7.1 °F 15.1 °F 78% 30.27 in 10.0 mi NW 16.1 mph - N/A   Clear
2:53 AM 19.9 °F 6.7 °F 14.0 °F 78% 30.30 in 10.0 mi NW 13.8 mph - N/A   Clear
3:53 AM 19.0 °F 9.0 °F 12.9 °F 77% 30.32 in 10.0 mi NW 8.1 mph - N/A   Clear
4:53 AM 21.0 °F 8.6 °F 14.0 °F 74% 30.32 in 10.0 mi NW 12.7 mph - N/A   Clear
5:53 AM 21.0 °F 8.6 °F 14.0 °F 74% 30.35 in 10.0 mi WNW 12.7 mph - N/A   Clear
6:53 AM 21.9 °F 9.8 °F 14.0 °F 72% 30.38 in 10.0 mi WNW 12.7 mph - N/A   Clear
7:53 AM 24.1 °F 13.7 °F 15.1 °F 69% 30.39 in 10.0 mi NW 10.4 mph - N/A   Clear
8:53 AM 27.0 °F 16.1 °F 16.0 °F 63% 30.41 in 10.0 mi WNW 12.7 mph - N/A   Clear
9:53 AM 30.9 °F 20.2 °F 19.0 °F 61% 30.43 in 10.0 mi West 15.0 mph - N/A   Clear
10:53 AM 36.0 °F 29.0 °F 21.0 °F 55% 30.45 in 10.0 mi NW 9.2 mph - N/A   Clear
11:53 AM 37.0 °F 29.8 °F 21.0 °F 52% 30.43 in 10.0 mi NW 10.4 mph - N/A   Clear
12:53 PM 39.0 °F 32.3 °F 21.9 °F 50% 30.41 in 10.0 mi NW 10.4 mph - N/A   Clear
1:53 PM 42.1 °F 37.7 °F 21.9 °F 45% 30.38 in 10.0 mi NNW 6.9 mph - N/A   Clear
2:53 PM 44.1 °F 40.1 °F 21.0 °F 40% 30.38 in 10.0 mi NW 6.9 mph - N/A   Clear
3:53 PM 44.1 °F 42.5 °F 23.0 °F 43% 30.38 in 10.0 mi NW 3.5 mph - N/A   Clear
5:53 PM 33.1 °F 26.1 °F 24.1 °F 70% 30.38 in 10.0 mi South 8.1 mph - N/A   Clear
6:53 PM 30.0 °F 21.7 °F 21.9 °F 72% 30.39 in 10.0 mi SSE 9.2 mph - N/A   Clear
7:53 PM 28.9 °F 21.1 °F 21.9 °F 75% 30.39 in 10.0 mi SSE 8.1 mph - N/A   Clear
8:53 PM 28.9 °F 19.8 °F 21.9 °F 75% 30.39 in 10.0 mi SSE 10.4 mph - N/A   Clear
9:53 PM 28.0 °F 18.1 °F 21.0 °F 75% 30.39 in 10.0 mi SSE 11.5 mph - N/A   Clear
10:53 PM 30.0 °F 20.0 °F 21.0 °F 69% 30.38 in 10.0 mi South 12.7 mph - N/A   Clear